This is the latest recevied weather packets stored in our database for station/object VK2ZAZ-10. If no packets are shown the sender has not sent any weather packets the latest 10 day(s).
| Time | Temp. | Humidity | Pressure | Rain* | Wind** | Luminosity | Snow |
|---|---|---|---|---|---|---|---|
| 1778058866 | 20° C | 54% | 1016.3 hPa | - | - | - | - |
| 1778057066 | 20° C | 55% | 1016.3 hPa | - | - | - | - |
| 1778055265 | 20.56° C | 55% | 1016.5 hPa | - | - | - | - |
| 1778053467 | 20.56° C | 55% | 1016.5 hPa | - | - | - | - |
| 1778051665 | 21.11° C | 54% | 1016.5 hPa | - | - | - | - |
| 1778049865 | 21.11° C | 53% | 1016.6 hPa | - | - | - | - |
| 1778048065 | 21.11° C | 52% | 1017.2 hPa | - | - | - | - |
| 1778046265 | 21.11° C | 52% | 1017.5 hPa | - | - | - | - |
| 1778044465 | 21.11° C | 51% | 1017.7 hPa | - | - | - | - |
| 1778042665 | 21.11° C | 51% | 1018.1 hPa | - | - | - | - |
| 1778040865 | 21.11° C | 51% | 1018.4 hPa | - | - | - | - |
| 1778039065 | 21.11° C | 50% | 1018.8 hPa | - | - | - | - |
| 1778037265 | 21.11° C | 51% | 1019.4 hPa | - | - | - | - |
| 1778035465 | 20.56° C | 52% | 1020 hPa | - | - | - | - |
| 1778033666 | 20° C | 52% | 1020.7 hPa | - | - | - | - |
| 1778031865 | 20° C | 51% | 1021.5 hPa | - | - | - | - |
| 1778030064 | 19.44° C | 50% | 1022.1 hPa | - | - | - | - |
| 1778028264 | 18.89° C | 49% | 1022.7 hPa | - | - | - | - |
| 1778026464 | 18.89° C | 49% | 1023.2 hPa | - | - | - | - |
| 1778024665 | 18.33° C | 50% | 1023.5 hPa | - | - | - | - |
| 1778022864 | 17.22° C | 51% | 1023.7 hPa | - | - | - | - |
| 1778021064 | 16.11° C | 51% | 1024.1 hPa | - | - | - | - |
| 1778019264 | 15.56° C | 52% | 1024 hPa | - | - | - | - |
| 1778017464 | 15° C | 52% | 1023.7 hPa | - | - | - | - |
| 1778015664 | 15° C | 51% | 1023.7 hPa | - | - | - | - |
* Rain since midnight (hover to see other rain measurements)
** Current wind speed in m/s (hover to see current wind gust speed)